TimeCDT,TemperatureF,Dew PointF,Humidity,Sea Level PressureIn,VisibilityMPH,Wind Direction,Wind SpeedMPH,Gust SpeedMPH,PrecipitationIn,Events,Conditions,WindDirDegrees,DateUTC
12:15 AM,65.3,46.2,50,30.05,10.0,SSE,18.4,25.3,N/A,,Overcast,150,2013-05-25 05:15:00
12:35 AM,64.9,45.9,50,30.06,10.0,SSE,18.4,-,N/A,,Mostly Cloudy,150,2013-05-25 05:35:00
12:55 AM,64.9,45.7,50,30.05,10.0,SE,17.3,23.0,N/A,,Overcast,140,2013-05-25 05:55:00
1:15 AM,64.8,46.0,51,30.05,10.0,SSE,19.6,24.2,N/A,,Overcast,160,2013-05-25 06:15:00
1:35 AM,64.6,45.7,50,30.03,10.0,SSE,19.6,26.5,N/A,,Overcast,150,2013-05-25 06:35:00
1:55 AM,64.0,45.5,51,30.03,10.0,SSE,19.6,24.2,N/A,,Overcast,150,2013-05-25 06:55:00
2:15 AM,63.7,45.5,52,30.04,10.0,SSE,16.1,25.3,N/A,,Overcast,150,2013-05-25 07:15:00
2:35 AM,63.5,45.9,53,30.03,10.0,SSE,18.4,23.0,N/A,Thunderstorm,Overcast,150,2013-05-25 07:35:00
2:55 AM,63.5,47.3,56,30.04,10.0,South,16.1,23.0,N/A,,Overcast,170,2013-05-25 07:55:00
3:15 AM,62.2,49.5,63,30.02,10.0,SSE,19.6,27.6,N/A,,Light Drizzle,160,2013-05-25 08:15:00
3:35 AM,61.0,50.0,67,29.96,10.0,SSE,25.3,-,N/A,,Scattered Clouds,160,2013-05-25 08:35:00
3:55 AM,61.0,49.6,66,29.97,10.0,SE,11.5,24.2,N/A,,Mostly Cloudy,140,2013-05-25 08:55:00
4:15 AM,60.1,53.1,78,29.94,10.0,South,25.3,33.4,N/A,Rain,Light Rain,190,2013-05-25 09:15:00
4:35 AM,60.4,55.6,84,29.98,10.0,North,17.3,39.1,N/A,Rain,Light Rain,10,2013-05-25 09:35:00
4:55 AM,61.7,55.9,81,29.97,10.0,SSW,23.0,33.4,N/A,,Light Drizzle,200,2013-05-25 09:55:00
5:15 AM,62.6,56.8,81,29.99,10.0,SSW,10.4,26.5,N/A,Rain,Light Rain,200,2013-05-25 10:15:00
5:35 AM,61.2,57.4,87,30.00,10.0,South,16.1,23.0,0.01,Rain,Light Rain,190,2013-05-25 10:35:00
5:55 AM,58.8,56.5,92,29.97,10.0,South,25.3,-,0.01,Rain-Thunderstorm,Light Thunderstorms and Rain,170,2013-05-25 10:55:00
6:15 AM,58.5,56.7,94,29.93,7.0,SSE,29.9,35.7,0.02,Rain,Light Rain,160,2013-05-25 11:15:00
6:35 AM,59.4,57.4,93,29.99,10.0,West,10.4,16.1,0.02,Rain,Light Rain,260,2013-05-25 11:35:00
6:55 AM,60.1,56.8,89,30.04,10.0,SSW,10.4,20.7,0.02,,Scattered Clouds,210,2013-05-25 11:55:00
7:15 AM,59.2,56.3,90,30.05,10.0,SSW,9.2,-,N/A,,Mostly Cloudy,210,2013-05-25 12:15:00
7:35 AM,59.0,56.3,91,30.05,10.0,SSW,8.1,-,N/A,,Overcast,210,2013-05-25 12:35:00
7:55 AM,58.6,56.3,92,30.01,10.0,SSE,10.4,16.1,N/A,,Overcast,150,2013-05-25 12:55:00
8:15 AM,58.5,56.3,93,30.05,10.0,North,5.8,-,N/A,,Overcast,10,2013-05-25 13:15:00
8:35 AM,59.0,57.0,93,30.05,10.0,East,8.1,-,N/A,,Overcast,90,2013-05-25 13:35:00
8:55 AM,59.4,57.2,93,30.03,10.0,ESE,12.7,-,N/A,,Overcast,110,2013-05-25 13:55:00
9:15 AM,59.0,56.8,93,30.02,10.0,ESE,12.7,-,N/A,,Scattered Clouds,120,2013-05-25 14:15:00
9:35 AM,60.1,58.1,93,30.03,10.0,ESE,11.5,-,N/A,,Scattered Clouds,120,2013-05-25 14:35:00
9:55 AM,61.7,58.6,90,30.03,10.0,SE,8.1,-,N/A,,Clear,130,2013-05-25 14:55:00
10:15 AM,63.3,59.4,87,30.01,10.0,ESE,6.9,-,N/A,,Clear,120,2013-05-25 15:15:00
10:35 AM,64.8,60.1,85,30.01,10.0,ESE,4.6,-,N/A,,Clear,120,2013-05-25 15:35:00
10:55 AM,66.0,60.3,82,30.02,10.0,East,9.2,-,N/A,,Clear,100,2013-05-25 15:55:00
11:15 AM,67.3,61.0,80,30.03,10.0,ESE,11.5,-,N/A,,Scattered Clouds,110,2013-05-25 16:15:00
11:35 AM,67.1,60.8,80,30.04,10.0,East,11.5,-,N/A,,Overcast,100,2013-05-25 16:35:00
11:55 AM,65.7,59.9,82,30.04,10.0,East,15.0,-,N/A,,Overcast,100,2013-05-25 16:55:00
12:15 PM,64.9,59.2,82,30.05,10.0,ESE,13.8,-,N/A,,Overcast,110,2013-05-25 17:15:00
12:35 PM,65.1,59.2,81,30.06,10.0,ESE,13.8,-,N/A,,Overcast,120,2013-05-25 17:35:00
12:55 PM,64.4,59.4,84,30.05,10.0,East,13.8,-,N/A,,Overcast,100,2013-05-25 17:55:00
1:15 PM,63.9,59.2,85,30.05,10.0,ESE,13.8,-,N/A,,Overcast,110,2013-05-25 18:15:00
1:35 PM,65.1,59.9,83,30.04,10.0,ESE,16.1,19.6,N/A,,Overcast,110,2013-05-25 18:35:00
1:55 PM,67.6,60.4,78,30.03,10.0,ESE,13.8,-,N/A,,Overcast,120,2013-05-25 18:55:00
2:15 PM,69.4,61.0,74,30.03,10.0,ESE,15.0,-,N/A,,Mostly Cloudy,110,2013-05-25 19:15:00
2:35 PM,71.1,61.0,70,30.03,10.0,ESE,13.8,-,N/A,,Mostly Cloudy,120,2013-05-25 19:35:00
2:55 PM,72.0,61.2,69,30.02,10.0,SE,11.5,-,N/A,,Scattered Clouds,130,2013-05-25 19:55:00
3:15 PM,73.6,61.5,66,30.02,10.0,SE,13.8,18.4,N/A,,Scattered Clouds,130,2013-05-25 20:15:00
3:35 PM,73.4,61.5,66,30.01,10.0,ESE,15.0,21.9,N/A,,Scattered Clouds,120,2013-05-25 20:35:00
3:55 PM,74.3,61.2,63,30.02,10.0,ESE,18.4,23.0,N/A,,Scattered Clouds,120,2013-05-25 20:55:00
4:15 PM,74.5,61.5,64,30.02,10.0,SE,15.0,-,N/A,,Scattered Clouds,130,2013-05-25 21:15:00
4:35 PM,75.0,61.9,64,30.00,10.0,ESE,15.0,23.0,N/A,,Scattered Clouds,120,2013-05-25 21:35:00
4:55 PM,74.3,62.1,65,30.00,10.0,ESE,13.8,20.7,N/A,,Scattered Clouds,120,2013-05-25 21:55:00
5:15 PM,73.4,62.2,68,30.00,10.0,ESE,13.8,18.4,N/A,,Mostly Cloudy,120,2013-05-25 22:15:00
5:35 PM,74.7,62.6,66,29.99,10.0,ESE,15.0,19.6,N/A,,Scattered Clouds,110,2013-05-25 22:35:00
5:55 PM,76.1,62.8,63,29.98,10.0,SE,16.1,-,N/A,,Scattered Clouds,130,2013-05-25 22:55:00
6:15 PM,75.2,63.1,66,29.98,10.0,ESE,19.6,23.0,N/A,,Mostly Cloudy,120,2013-05-25 23:15:00
6:35 PM,74.3,63.5,69,29.96,10.0,ESE,19.6,-,N/A,,Mostly Cloudy,120,2013-05-25 23:35:00
6:55 PM,73.6,63.5,71,29.97,10.0,ESE,18.4,24.2,N/A,,Overcast,110,2013-05-25 23:55:00
7:15 PM,72.5,63.7,74,29.96,10.0,ESE,18.4,25.3,N/A,,Overcast,110,2013-05-26 00:15:00
7:35 PM,71.6,63.5,76,29.96,10.0,ESE,19.6,24.2,N/A,,Scattered Clouds,110,2013-05-26 00:35:00
7:55 PM,70.2,63.1,78,29.96,10.0,ESE,18.4,25.3,N/A,,Scattered Clouds,110,2013-05-26 00:55:00
8:15 PM,69.1,63.0,81,29.95,10.0,East,18.4,-,N/A,,Mostly Cloudy,100,2013-05-26 01:15:00
8:35 PM,68.2,62.8,83,29.96,10.0,East,18.4,-,N/A,,Overcast,100,2013-05-26 01:35:00
8:55 PM,67.1,62.1,84,29.97,10.0,East,15.0,24.2,N/A,,Overcast,100,2013-05-26 01:55:00
9:15 PM,66.2,61.7,85,29.98,10.0,ESE,18.4,24.2,N/A,,Overcast,110,2013-05-26 02:15:00
9:35 PM,65.5,61.2,86,30.00,10.0,East,17.3,23.0,N/A,,Overcast,100,2013-05-26 02:35:00
9:55 PM,64.4,60.4,87,30.01,10.0,ESE,19.6,25.3,N/A,,Overcast,110,2013-05-26 02:55:00
10:15 PM,63.7,59.7,87,30.02,10.0,ESE,18.4,25.3,N/A,,Overcast,120,2013-05-26 03:15:00
10:35 PM,62.4,59.0,89,30.01,10.0,ESE,19.6,25.3,N/A,,Overcast,120,2013-05-26 03:35:00
10:55 PM,61.9,58.6,89,30.00,10.0,ESE,17.3,20.7,N/A,Thunderstorm,Overcast,120,2013-05-26 03:55:00
11:15 PM,61.5,58.3,89,30.01,10.0,ESE,18.4,21.9,N/A,,Overcast,110,2013-05-26 04:15:00
11:35 PM,61.0,58.1,90,30.00,10.0,ESE,17.3,-,N/A,,Overcast,120,2013-05-26 04:35:00
11:55 PM,61.0,58.1,90,29.98,10.0,SE,15.0,21.9,N/A,,Overcast,130,2013-05-26 04:55:00